Weather Roundup
Issued by NWS

Home | Current Version | Previous Version | Text Only | Print | Product List | Glossary On
Versions: 1 2 3 4 5 6 7 8 9 10 11 12 13 14 15 16 17 18 19 20 21 22 23 24 25 26 27 28 29 30 31 32 33 34 35 36 37 38 39 40 41 42 43 44 45 46 47 48 49 50
000
NZUS93 KARX 221759
HRRWXR

CURRENT HOURLY OBSERVATIONS ACROSS
MUCH OF THE UPPER MISSISSIPPI VALLEY
NATIONAL WEATHER SERVICE LA CROSSE WI
100 PM CDT MON SEP 22 2014


...SOUTHEAST MINNESOTA...


CITY           SKY/WX    TMP DP  RH WIND       PRES   REMARKS
ROCHESTER      SUNNY     65  49  56 W6        30.28F
ROCHESTER/MAYO FAIR      64  48  57 NW3       30.27F
WINONA         MOSUNNY   70  54  56 NW7       30.26S
AUSTIN         SUNNY     64  50  59 SW6       30.27F
ALBERT LEA     SUNNY     66  50  55 CALM      30.27S
DODGE CENTER   SUNNY     64  52  63 W5        30.27S
PRESTON        SUNNY     64  55  71 W8        30.28S
OWATONNA       SUNNY     66  48  52 CALM      30.26F
FARIBAULT      SUNNY     70  46  43 W3        30.26F
$$

...ELSEWHERE IN MINNESOTA...


CITY           SKY/WX    TMP DP  RH WIND       PRES   REMARKS
MINNEAPOLIS    MOSUNNY   68  51  54 W9        30.24F
INTNL FALLS    SUNNY     70  50  49 W9        30.09F
DULUTH         MOSUNNY   68  50  52 W15G22    30.16F
RED WING       SUNNY     66  52  59 W8        30.24F
REDWOOD FALLS  SUNNY     70  47  43 W8        30.22F
MANKATO        MOSUNNY   66  46  48 SW7       30.25F
WORTHINGTON    SUNNY     66  46  48 SW7       30.26F
FAIRMONT       SUNNY     70  45  40 SW5       30.27S
$$

...SOUTHWEST WISCONSIN...


CITY           SKY/WX    TMP DP  RH WIND       PRES   REMARKS
LA CROSSE      MOSUNNY   69  50  50 NW12      30.25F
PRAIRIE DU CHI SUNNY     66  46  48 W7        30.28F
BOSCOBEL       SUNNY     67  49  52 SW9       30.28F
LONE ROCK      NOT AVBL
PLATTEVILLE    SUNNY     64  46  51 W5        30.30F
FORT MC COY    MOSUNNY   65  48  52 W7        30.26F
VIROQUA        FAIR      65  49  56 W9        30.28S
WIS DELLS      SUNNY     64  45  48 NW10      30.26F
$$

...ELSEWHERE IN WISCONSIN...


CITY           SKY/WX    TMP DP  RH WIND       PRES   REMARKS
MILWAUKEE      MOSUNNY   64  42  44 NW6       30.26F
MADISON        MOSUNNY   65  44  46 W8        30.26F
GREEN BAY      MOSUNNY   66  45  46 W10       30.21F
EAU CLAIRE     NOT AVBL
BLACK RVR FLS  MOCLDY    65  47  52 NW7       30.24F
MEDFORD        CLOUDY    59  49  69 W13       30.24S
WAUSAU         CLOUDY    63  46  54 W17       30.21F
WIS RAPIDS     CLOUDY    65  47  52 W8        30.25F
MARSHFIELD     PTSUNNY   64  49  57 NW10      30.23F
RICE LAKE      PTSUNNY   64  51  63 W7        30.24F
$$

...NORTHEAST IOWA...


CITY           SKY/WX    TMP DP  RH WIND       PRES   REMARKS
WATERLOO       SUNNY     68  47  46 W7        30.28F
DUBUQUE        SUNNY     64  44  48 SW8       30.30F
DECORAH        SUNNY     64  48  55 W9        30.27F
MASON CITY     SUNNY     67  51  56 SW9       30.29F
CHARLES CITY   MOSUNNY   66  50  55 SW9       30.29F
OELWEIN        SUNNY     66  46  48 SW8G14    30.30F
$$

...ELSEWHERE IN IOWA...


CITY           SKY/WX    TMP DP  RH WIND       PRES   REMARKS
DES MOINES     MOSUNNY   69  50  50 VRB5      30.29F
IOWA CITY      SUNNY     66  48  52 W6        30.31F
FORT DODGE     SUNNY     68  50  52 W7        30.30F
MARSHALLTOWN   SUNNY     68  50  52 W6        30.29F
CEDAR RAPIDS   SUNNY     66  47  50 VRB5      30.30F
$$

...NORTHERN ILLINOIS...


CITY           SKY/WX    TMP DP  RH WIND       PRES   REMARKS
CHICAGO-OHARE  MOSUNNY   58  40  51 CALM      30.28F
DUPAGE         SUNNY     65  41  41 N8        30.28F
CHICAGO-MIDWAY MOSUNNY   65  44  46 NW5       30.28F
MOLINE         SUNNY     65  43  44 CALM      30.30F
ROCKFORD       SUNNY     64  43  46 SW6       30.30F
STERLING       SUNNY     66  43  42 SW5       30.30F
PEORIA         SUNNY     67  45  45 E6        30.30F
$$

NOTE: "FAIR" INDICATES FEW OR NO CLOUDS BELOW 12,000 FEET WITH NO
SIGNIFICANT WEATHER AND/OR OBSTRUCTIONS TO VISIBILITY. WIND
SPEEDS ARE IN MILES-PER-HOUR.



USA.gov is the U.S. government's official web portal to all federal, state and local government web resources and services.